| time (UTC) | temp F | wind direction | speed knots | gust knots | rain 1hr in | rain 24hr in | rain mn in | humidity % | barometer mb |
| 20260906125649 | 75 | 155 | 0.0 | 0.0 | 0.00 | 0.01 | 0.01 | 99 | 1013.3 |
| 20260906125148 | 75 | 164 | 0.0 | 0.0 | 0.00 | 0.01 | 0.01 | 99 | 1013.3 |
| 20260906124643 | 75 | 150 | 0.0 | 0.0 | 0.00 | 0.01 | 0.01 | 99 | 1013.4 |
| 20260906124139 | 75 | 148 | 0.0 | 0.0 | 0.00 | 0.01 | 0.01 | 99 | 1013.4 |
| 20260906123637 | 75 | 129 | 0.0 | 0.0 | 0.00 | 0.01 | 0.01 | 99 | 1013.1 |
| 20260906123133 | 74 | 188 | 0.0 | 0.0 | 0.00 | 0.01 | 0.01 | 99 | 1013.1 |
| 20260906122632 | 74 | 197 | 0.0 | 0.0 | 0.00 | 0.01 | 0.01 | 99 | 1013.1 |
| 20260906122128 | 74 | 189 | 0.0 | 0.0 | 0.00 | 0.01 | 0.01 | 99 | 1013.2 |
| 20260906121624 | 74 | 188 | 0.0 | 0.0 | 0.00 | 0.01 | 0.01 | 99 | 1013.0 |
| 20260906121120 | 74 | 199 | 0.0 | 0.0 | 0.00 | 0.01 | 0.01 | 99 | 1013.0 |
| 20260906120615 | 74 | 156 | 0.0 | 0.0 | 0.00 | 0.01 | 0.01 | 99 | 1013.2 |
| 20260906120113 | 74 | 156 | 0.0 | 0.0 | 0.00 | 0.01 | 0.01 | 99 | 1012.7 |
| 20260906115613 | 74 | 197 | 0.0 | 0.0 | 0.00 | 0.01 | 0.01 | 99 | 1013.0 |
| 20260906115109 | 74 | 198 | 0.0 | 0.0 | 0.00 | 0.01 | 0.01 | 99 | 1013.0 |
| 20260906114608 | 74 | 170 | 0.0 | 0.0 | 0.00 | 0.01 | 0.01 | 99 | 1012.9 |
| 20260906114103 | 74 | 190 | 0.0 | 0.0 | 0.00 | 0.01 | 0.01 | 99 | 1013.1 |
| 20260906113603 | 74 | 205 | 0.0 | 0.0 | 0.00 | 0.01 | 0.01 | 99 | 1013.0 |
| 20260906113057 | 74 | 205 | 0.0 | 0.0 | 0.00 | 0.01 | 0.01 | 99 | 1013.0 |
| 20260906112552 | 74 | 196 | 0.0 | 0.0 | 0.00 | 0.01 | 0.01 | 99 | 1013.2 |
| 20260906112049 | 74 | 196 | 0.0 | 0.0 | 0.00 | 0.01 | 0.01 | 99 | 1013.0 |
| 20260906111548 | 74 | 174 | 0.0 | 0.0 | 0.00 | 0.01 | 0.01 | 99 | 1013.3 |
| 20260906111043 | 74 | 159 | 0.0 | 0.0 | 0.00 | 0.01 | 0.01 | 99 | 1013.2 |
| 20260906110543 | 74 | 145 | 0.0 | 0.0 | 0.00 | 0.01 | 0.01 | 99 | 1013.3 |
| 20260906110042 | 74 | 199 | 0.0 | 0.0 | 0.00 | 0.01 | 0.01 | 99 | 1013.2 |
| 20260906105537 | 75 | 155 | 0.0 | 0.0 | 0.00 | 0.01 | 0.01 | 99 | 1013.1 |
| 20260906105033 | 74 | 61 | 0.0 | 0.0 | 0.00 | 0.01 | 0.01 | 99 | 1013.2 |
| 20260906104532 | 74 | 62 | 0.0 | 0.0 | 0.00 | 0.01 | 0.01 | 99 | 1013.1 |
| 20260906104032 | 75 | 221 | 0.0 | 0.0 | 0.00 | 0.01 | 0.01 | 99 | 1012.9 |
| 20260906103530 | 74 | 203 | 0.0 | 0.0 | 0.00 | 0.01 | 0.01 | 99 | 1012.8 |
| 20260906103026 | 74 | 167 | 0.0 | 0.0 | 0.00 | 0.01 | 0.01 | 99 | 1012.7 |
| 20260906102526 | 74 | 167 | 0.0 | 0.0 | 0.00 | 0.01 | 0.01 | 99 | 1012.6 |
| 20260906102021 | 74 | 145 | 0.0 | 0.0 | 0.00 | 0.01 | 0.01 | 99 | 1012.7 |
| 20260906101515 | 74 | 66 | 0.0 | 0.0 | 0.00 | 0.01 | 0.01 | 99 | 1012.7 |
| 20260906101010 | 74 | 94 | 0.0 | 0.0 | 0.00 | 0.01 | 0.01 | 99 | 1012.6 |
| 20260906100506 | 74 | 266 | 0.0 | 0.0 | 0.00 | 0.01 | 0.01 | 99 | 1012.5 |
| 20260906100000 | 74 | 227 | 0.0 | 0.0 | 0.00 | 0.01 | 0.01 | 99 | 1012.6 |
| 20260906095455 | 74 | 216 | 0.0 | 0.0 | 0.00 | 0.01 | 0.01 | 99 | 1012.4 |
| 20260906094950 | 74 | 209 | 0.0 | 0.0 | 0.00 | 0.01 | 0.01 | 99 | 1012.5 |
| 20260906094449 | 74 | 210 | 0.0 | 0.0 | 0.00 | 0.01 | 0.01 | 99 | 1012.6 |
| 20260906093945 | 74 | 243 | 0.0 | 0.0 | 0.00 | 0.01 | 0.01 | 99 | 1012.5 |
| 20260906093441 | 74 | 252 | 0.0 | 0.0 | 0.00 | 0.01 | 0.01 | 99 | 1012.3 |
| 20260906092942 | 74 | 204 | 0.0 | 0.0 | 0.00 | 0.01 | 0.01 | 99 | 1012.5 |
| 20260906092442 | 74 | 197 | 0.0 | 0.0 | 0.00 | 0.01 | 0.01 | 99 | 1012.5 |
| 20260906091937 | 74 | 197 | 0.0 | 0.0 | 0.00 | 0.01 | 0.01 | 99 | 1012.5 |
| 20260906091433 | 74 | 189 | 0.0 | 0.0 | 0.00 | 0.01 | 0.01 | 99 | 1012.5 |
| 20260906090929 | 74 | 186 | 0.0 | 0.0 | 0.00 | 0.01 | 0.01 | 99 | 1012.4 |
| 20260906090424 | 74 | 160 | 0.0 | 0.0 | 0.00 | 0.01 | 0.01 | 99 | 1012.6 |
| 20260906085918 | 74 | 98 | 0.0 | 0.0 | 0.00 | 0.01 | 0.01 | 99 | 1012.6 |
| 20260906085412 | 74 | 138 | 0.0 | 0.0 | 0.00 | 0.01 | 0.01 | 99 | 1012.7 |
| 20260906084911 | 74 | 139 | 0.0 | 0.0 | 0.00 | 0.01 | 0.01 | 99 | 1012.4 |
| 20260906084407 | 74 | 138 | 0.0 | 0.0 | 0.00 | 0.01 | 0.01 | 99 | 1012.8 |
| 20260906083905 | 74 | 113 | 0.0 | 0.0 | 0.00 | 0.01 | 0.01 | 99 | 1012.3 |
| 20260906083401 | 74 | 60 | 0.0 | 0.0 | 0.00 | 0.01 | 0.01 | 99 | 1012.6 |
| 20260906082900 | 74 | 45 | 0.0 | 0.0 | 0.00 | 0.01 | 0.01 | 99 | 1012.4 |
| 20260906082355 | 74 | 42 | 0.0 | 0.0 | 0.00 | 0.01 | 0.01 | 99 | 1012.6 |
| 20260906081852 | 74 | 297 | 0.0 | 0.0 | 0.00 | 0.01 | 0.01 | 99 | 1012.3 |
| 20260906081347 | 74 | 189 | 0.0 | 0.0 | 0.00 | 0.01 | 0.01 | 99 | 1012.3 |
| 20260906080843 | 74 | 186 | 0.0 | 0.0 | 0.00 | 0.01 | 0.01 | 99 | 1012.5 |
| 20260906080339 | 74 | 184 | 0.0 | 0.0 | 0.00 | 0.01 | 0.01 | 99 | 1012.5 |
| 20260906075838 | 74 | 125 | 0.0 | 0.0 | 0.00 | 0.01 | 0.01 | 99 | 1012.3 |
| 20260906075333 | 74 | 125 | 0.0 | 0.0 | 0.00 | 0.01 | 0.01 | 99 | 1012.6 |
| 20260906074829 | 74 | 175 | 0.0 | 0.0 | 0.00 | 0.01 | 0.01 | 99 | 1012.8 |
| 20260906074328 | 75 | 170 | 0.0 | 0.0 | 0.00 | 0.01 | 0.01 | 99 | 1012.5 |
| 20260906073827 | 75 | 151 | 0.0 | 0.0 | 0.00 | 0.01 | 0.01 | 99 | 1012.5 |
| 20260906073322 | 75 | 65 | 0.0 | 0.0 | 0.00 | 0.01 | 0.01 | 99 | 1012.4 |
| 20260906072818 | 75 | 64 | 0.0 | 0.0 | 0.00 | 0.01 | 0.01 | 99 | 1012.5 |
| 20260906072314 | 75 | 61 | 0.0 | 0.0 | 0.00 | 0.01 | 0.01 | 99 | 1012.3 |
| 20260906071810 | 75 | 98 | 0.0 | 0.0 | 0.00 | 0.01 | 0.01 | 99 | 1012.3 |
| 20260906071310 | 75 | 69 | 0.0 | 0.0 | 0.00 | 0.01 | 0.01 | 99 | 1012.3 |
| 20260906070807 | 75 | 128 | 0.0 | 0.0 | 0.00 | 0.01 | 0.01 | 99 | 1012.2 |
| 20260906070302 | 75 | 173 | 0.0 | 0.0 | 0.00 | 0.01 | 0.01 | 99 | 1011.8 |
| 20260906065802 | 75 | 145 | 0.0 | 0.0 | 0.00 | 0.01 | 0.01 | 99 | 1011.8 |
| 20260906065257 | 75 | 162 | 0.0 | 0.0 | 0.00 | 0.01 | 0.01 | 99 | 1011.8 |
| 20260906064753 | 75 | 165 | 0.0 | 0.0 | 0.00 | 0.01 | 0.01 | 99 | 1012.0 |
| 20260906064249 | 75 | 120 | 0.0 | 0.0 | 0.00 | 0.01 | 0.01 | 99 | 1012.1 |
| 20260906063743 | 76 | 63 | 0.9 | 0.9 | 0.00 | 0.01 | 0.01 | 99 | 1012.2 |
| 20260906063239 | 76 | 80 | 2.6 | 2.6 | 0.00 | 0.01 | 0.01 | 98 | 1012.2 |
| 20260906062733 | 76 | 201 | 0.0 | 0.0 | 0.05 | 0.01 | 0.01 | 98 | 1012.1 |
| 20260906062227 | 76 | 267 | 2.6 | 4.3 | 0.05 | 0.01 | 0.01 | 98 | 1011.9 |
| 20260906061723 | 75 | 245 | 5.2 | 6.1 | 0.00 | 0.00 | 0.00 | 98 | 1012.3 |
| 20260906061220 | 75 | 229 | 0.9 | 1.7 | 0.00 | 0.00 | 0.00 | 98 | 1012.6 |
| 20260906060714 | 75 | 183 | 0.0 | 0.0 | 0.00 | 0.00 | 0.00 | 98 | 1012.8 |
| 20260906060212 | 76 | 166 | 0.0 | 0.0 | 0.00 | 0.00 | 0.00 | 98 | 1012.8 |
| 20260906055707 | 76 | 88 | 0.9 | 0.9 | 0.00 | 0.00 | 0.00 | 98 | 1012.9 |
| 20260906055203 | 76 | 52 | 2.6 | 2.6 | 0.00 | 0.00 | 0.00 | 98 | 1013.2 |
| 20260906054657 | 76 | 60 | 1.7 | 1.7 | 0.00 | 0.00 | 0.00 | 98 | 1013.1 |
| 20260906054152 | 76 | 66 | 0.0 | 0.0 | 0.00 | 0.00 | 0.00 | 98 | 1013.1 |
| 20260906053649 | 76 | 131 | 0.0 | 0.0 | 0.00 | 0.00 | 0.00 | 98 | 1012.7 |
| 20260906053143 | 76 | 138 | 0.0 | 0.0 | 0.00 | 0.00 | 0.00 | 98 | 1013.0 |
| 20260906052639 | 76 | 110 | 0.0 | 0.0 | 0.00 | 0.00 | 0.00 | 98 | 1013.0 |
| 20260906052136 | 76 | 195 | 0.0 | 0.0 | 0.00 | 0.00 | 0.00 | 98 | 1013.0 |
| 20260906051632 | 76 | 195 | 0.0 | 0.0 | 0.00 | 0.00 | 0.00 | 98 | 1012.9 |
| 20260906051131 | 75 | 170 | 0.0 | 0.0 | 0.00 | 0.00 | 0.00 | 98 | 1012.9 |
| 20260906050627 | 75 | 169 | 0.0 | 0.0 | 0.00 | 0.00 | 0.00 | 97 | 1012.9 |
| 20260906050122 | 76 | 170 | 0.0 | 0.0 | 0.00 | 0.00 | 0.00 | 97 | 1012.9 |
| 20260906045620 | 76 | 170 | 0.0 | 0.0 | 0.00 | 0.00 | 0.00 | 97 | 1012.9 |
| 20260906045116 | 76 | 107 | 0.0 | 0.0 | 0.00 | 0.00 | 0.00 | 97 | 1012.8 |
| 20260906044612 | 76 | 141 | 0.0 | 0.0 | 0.00 | 0.00 | 0.00 | 97 | 1012.9 |
| 20260906044107 | 76 | 141 | 0.0 | 0.0 | 0.00 | 0.00 | 0.00 | 97 | 1013.0 |
| 20260906043603 | 76 | 107 | 0.0 | 0.0 | 0.00 | 0.00 | 0.00 | 96 | 1012.9 |
| 20260906043058 | 77 | 108 | 0.0 | 0.0 | 0.00 | 0.00 | 0.00 | 96 | 1013.1 |
| 20260906042557 | 77 | 106 | 0.0 | 0.0 | 0.00 | 0.00 | 0.00 | 96 | 1013.1 |
| 20260906042052 | 77 | 131 | 0.0 | 0.0 | 0.00 | 0.00 | 0.00 | 96 | 1013.0 |
| 20260906041549 | 77 | 137 | 0.0 | 0.0 | 0.00 | 0.00 | 0.00 | 96 | 1013.2 |
| 20260906041043 | 77 | 142 | 0.0 | 0.0 | 0.00 | 0.00 | 0.00 | 96 | 1013.3 |
| 20260906040538 | 77 | 151 | 0.0 | 0.0 | 0.00 | 0.00 | 0.00 | 96 | 1013.1 |
| 20260906040033 | 77 | 154 | 0.0 | 0.0 | 0.00 | 0.00 | 0.00 | 96 | 1013.0 |
| 20260906035523 | 77 | 130 | 0.0 | 0.0 | 0.00 | 0.00 | 0.00 | 96 | 1013.1 |
| 20260906035019 | 77 | 131 | 0.0 | 0.0 | 0.00 | 0.00 | 0.00 | 96 | 1013.1 |
| 20260906034518 | 77 | 186 | 0.0 | 0.0 | 0.00 | 0.00 | 0.00 | 96 | 1013.0 |
| 20260906034014 | 77 | 186 | 0.0 | 0.0 | 0.00 | 0.00 | 0.00 | 96 | 1013.0 |
| 20260906033508 | 77 | 186 | 0.0 | 0.0 | 0.00 | 0.00 | 0.00 | 96 | 1012.9 |
| 20260906033004 | 77 | 186 | 0.0 | 0.0 | 0.00 | 0.00 | 0.00 | 96 | 1013.0 |
| 20260906032455 | 77 | 186 | 0.0 | 0.0 | 0.00 | 0.00 | 0.00 | 96 | 1013.1 |
| 20260906031954 | 77 | 186 | 0.0 | 0.0 | 0.00 | 0.00 | 0.00 | 96 | 1013.1 |
| 20260906031450 | 77 | 178 | 0.0 | 0.0 | 0.00 | 0.00 | 0.00 | 96 | 1013.3 |
| 20260906030945 | 77 | 196 | 0.0 | 0.0 | 0.00 | 0.00 | 0.00 | 96 | 1013.3 |
| 20260906030440 | 77 | 200 | 0.0 | 0.0 | 0.00 | 0.00 | 0.00 | 95 | 1013.1 |
| 20260906025934 | 77 | 228 | 0.0 | 0.0 | 0.00 | 0.00 | 0.00 | 95 | 1013.1 |
| 20260906025428 | 77 | 270 | 0.0 | 0.0 | 0.00 | 0.00 | 0.00 | 95 | 1013.1 |
| 20260906024927 | 77 | 169 | 0.0 | 0.0 | 0.00 | 0.00 | 0.00 | 94 | 1013.4 |
| 20260906024426 | 78 | 169 | 0.0 | 0.0 | 0.00 | 0.00 | 0.00 | 94 | 1013.3 |
| 20260906023922 | 78 | 153 | 0.0 | 0.0 | 0.00 | 0.00 | 0.00 | 94 | 1013.3 |
| 20260906023418 | 78 | 122 | 0.0 | 0.0 | 0.00 | 0.00 | 0.00 | 93 | 1013.1 |
| 20260906022918 | 78 | 156 | 0.0 | 0.0 | 0.00 | 0.00 | 0.00 | 93 | 1012.9 |
| 20260906022413 | 78 | 156 | 0.0 | 0.0 | 0.00 | 0.00 | 0.00 | 93 | 1012.8 |
| 20260906021909 | 78 | 156 | 0.0 | 0.0 | 0.00 | 0.00 | 0.00 | 93 | 1012.7 |
| 20260906021408 | 78 | 156 | 0.0 | 0.0 | 0.00 | 0.00 | 0.00 | 93 | 1012.6 |
| 20260906020903 | 78 | 156 | 0.0 | 0.0 | 0.00 | 0.00 | 0.00 | 93 | 1012.6 |
| 20260906020357 | 79 | 157 | 0.0 | 0.0 | 0.00 | 0.00 | 0.00 | 92 | 1012.4 |
| 20260906015852 | 79 | 158 | 0.0 | 0.0 | 0.00 | 0.00 | 0.00 | 92 | 1012.4 |
| 20260906015351 | 79 | 152 | 0.0 | 0.0 | 0.00 | 0.00 | 0.00 | 92 | 1012.5 |
| 20260906014850 | 79 | 153 | 0.0 | 0.0 | 0.00 | 0.00 | 0.00 | 91 | 1012.3 |
| 20260906014345 | 79 | 126 | 0.0 | 0.0 | 0.00 | 0.00 | 0.00 | 91 | 1012.3 |
| 20260906013841 | 80 | 170 | 0.0 | 0.0 | 0.00 | 0.00 | 0.00 | 90 | 1012.4 |
| 20260906013336 | 79 | 170 | 0.0 | 0.0 | 0.00 | 0.00 | 0.00 | 91 | 1012.1 |
| 20260906012832 | 80 | 169 | 0.0 | 0.0 | 0.00 | 0.00 | 0.00 | 91 | 1012.3 |
| 20260906012327 | 80 | 182 | 0.0 | 0.0 | 0.00 | 0.00 | 0.00 | 90 | 1012.1 |
| 20260906011827 | 80 | 228 | 0.0 | 0.0 | 0.00 | 0.00 | 0.00 | 89 | 1012.0 |
| 20260906011322 | 80 | 228 | 0.0 | 0.0 | 0.00 | 0.00 | 0.00 | 89 | 1012.1 |
| 20260906010818 | 80 | 225 | 0.0 | 0.0 | 0.00 | 0.00 | 0.00 | 89 | 1011.8 |
| 20260906010314 | 80 | 228 | 0.0 | 0.0 | 0.00 | 0.00 | 0.00 | 89 | 1011.8 |
| 20260906005809 | 80 | 228 | 0.0 | 0.0 | 0.00 | 0.00 | 0.00 | 89 | 1011.7 |
| 20260906005307 | 80 | 224 | 0.0 | 0.0 | 0.00 | 0.00 | 0.00 | 89 | 1011.8 |
| 20260906004806 | 81 | 239 | 0.0 | 0.9 | 0.00 | 0.00 | 0.00 | 87 | 1011.7 |
| 20260906004301 | 81 | 247 | 0.0 | 0.0 | 0.00 | 0.00 | 0.00 | 87 | 1011.7 |
| 20260906003756 | 81 | 316 | 0.9 | 1.7 | 0.00 | 0.00 | 0.00 | 87 | 1011.7 |
| 20260906003252 | 82 | 234 | 1.7 | 1.7 | 0.00 | 0.00 | 0.00 | 87 | 1011.6 |
| 20260906002747 | 81 | 297 | 1.7 | 1.7 | 0.00 | 0.00 | 0.00 | 87 | 1011.7 |
| 20260906002247 | 82 | 256 | 1.7 | 1.7 | 0.00 | 0.00 | 0.00 | 87 | 1011.6 |
| 20260906001742 | 82 | 235 | 0.9 | 0.9 | 0.00 | 0.00 | 0.00 | 87 | 1011.6 |
| 20260906001237 | 81 | 278 | 1.7 | 1.7 | 0.00 | 0.00 | 0.00 | 87 | 1011.7 |
| 20260906000733 | 82 | 234 | 3.5 | 4.3 | 0.00 | 0.00 | 0.00 | 86 | 1011.8 |
| 20260906000234 | 82 | 222 | 2.6 | 2.6 | 0.00 | 0.00 | 0.00 | 86 | 1011.7 |
| 20260905235733 | 82 | 229 | 2.6 | 4.3 | 0.00 | 0.00 | 0.00 | 85 | 1011.7 |
| 20260905235227 | 82 | 243 | 2.6 | 2.6 | 0.00 | 0.00 | 0.00 | 85 | 1011.9 |
| 20260905234723 | 83 | 227 | 0.9 | 0.9 | 0.00 | 0.00 | 0.00 | 85 | 1011.8 |
| 20260905234218 | 83 | 226 | 4.3 | 5.2 | 0.00 | 0.00 | 0.00 | 84 | 1011.8 |
| 20260905233713 | 83 | 228 | 2.6 | 2.6 | 0.00 | 0.00 | 0.00 | 83 | 1011.7 |
| 20260905233212 | 84 | 229 | 4.3 | 5.2 | 0.00 | 0.00 | 0.00 | 83 | 1011.9 |
| 20260905232707 | 84 | 234 | 5.2 | 6.1 | 0.00 | 0.00 | 0.00 | 82 | 1012.0 |
| 20260905232203 | 84 | 270 | 5.2 | 6.1 | 0.00 | 0.00 | 0.00 | 82 | 1011.9 |
| 20260905231659 | 84 | 237 | 3.5 | 4.3 | 0.00 | 0.00 | 0.00 | 82 | 1012.0 |
| 20260905231154 | 84 | 256 | 3.5 | 4.3 | 0.00 | 0.00 | 0.00 | 83 | 1011.9 |
| 20260905230650 | 84 | 246 | 3.5 | 5.2 | 0.00 | 0.00 | 0.00 | 83 | 1011.7 |
| 20260905230148 | 84 | 260 | 6.1 | 7.0 | 0.00 | 0.00 | 0.00 | 82 | 1011.7 |
| 20260905225647 | 85 | 245 | 4.3 | 5.2 | 0.00 | 0.00 | 0.00 | 81 | 1012.0 |
| 20260905225142 | 86 | 240 | 5.2 | 6.1 | 0.00 | 0.00 | 0.00 | 80 | 1011.9 |
| 20260905224641 | 87 | 261 | 4.3 | 4.3 | 0.00 | 0.00 | 0.00 | 79 | 1011.9 |
| 20260905224136 | 87 | 292 | 7.0 | 7.8 | 0.00 | 0.00 | 0.00 | 78 | 1011.9 |
| 20260905223633 | 87 | 260 | 7.8 | 7.8 | 0.00 | 0.00 | 0.00 | 79 | 1011.8 |
| 20260905223130 | 88 | 225 | 5.2 | 6.1 | 0.00 | 0.00 | 0.00 | 76 | 1011.7 |
| 20260905222625 | 88 | 208 | 4.3 | 5.2 | 0.00 | 0.00 | 0.00 | 76 | 1011.9 |
| 20260905222120 | 89 | 198 | 3.5 | 4.3 | 0.00 | 0.00 | 0.00 | 74 | 1011.9 |
| 20260905221615 | 88 | 234 | 5.2 | 6.1 | 0.00 | 0.00 | 0.00 | 75 | 1011.9 |
| 20260905221112 | 90 | 245 | 2.6 | 2.6 | 0.00 | 0.00 | 0.00 | 72 | 1012.0 |
| 20260905220607 | 89 | 284 | 6.1 | 7.0 | 0.00 | 0.00 | 0.00 | 73 | 1011.9 |
| 20260905215602 | 89 | 228 | 4.3 | 5.2 | 0.00 | 0.00 | 0.00 | 76 | 1011.8 |
| 20260905215058 | 89 | 244 | 2.6 | 2.6 | 0.00 | 0.00 | 0.00 | 74 | 1011.8 |
| 20260905214554 | 88 | 213 | 2.6 | 2.6 | 0.00 | 0.00 | 0.00 | 75 | 1011.8 |
| 20260905214049 | 88 | 248 | 5.2 | 7.8 | 0.00 | 0.00 | 0.00 | 74 | 1011.8 |
| 20260905213544 | 88 | 243 | 3.5 | 4.3 | 0.00 | 0.00 | 0.00 | 75 | 1012.0 |
| 20260905213039 | 88 | 231 | 2.6 | 4.3 | 0.00 | 0.00 | 0.00 | 73 | 1011.9 |
| 20260905212534 | 89 | 269 | 6.1 | 7.0 | 0.00 | 0.00 | 0.00 | 74 | 1011.9 |
| 20260905212034 | 91 | 181 | 2.6 | 4.3 | 0.00 | 0.00 | 0.00 | 69 | 1011.9 |
| 20260905211529 | 91 | 198 | 2.6 | 4.3 | 0.00 | 0.00 | 0.00 | 69 | 1012.0 |
| 20260905211025 | 90 | 188 | 2.6 | 2.6 | 0.00 | 0.00 | 0.00 | 71 | 1012.3 |
| 20260905210521 | 89 | 218 | 1.7 | 2.6 | 0.00 | 0.00 | 0.00 | 71 | 1012.2 |
| 20260905210020 | 88 | 236 | 6.1 | 7.8 | 0.00 | 0.00 | 0.00 | 75 | 1012.3 |
| 20260905205514 | 89 | 205 | 3.5 | 5.2 | 0.00 | 0.00 | 0.00 | 73 | 1012.1 |
| 20260905205013 | 89 | 272 | 4.3 | 6.1 | 0.00 | 0.00 | 0.00 | 70 | 1012.1 |
| 20260905204509 | 89 | 349 | 0.9 | 1.7 | 0.00 | 0.00 | 0.00 | 71 | 1012.1 |
| 20260905204009 | 90 | 202 | 4.3 | 6.1 | 0.00 | 0.00 | 0.00 | 72 | 1012.4 |
| 20260905203504 | 91 | 266 | 6.1 | 6.1 | 0.00 | 0.00 | 0.00 | 70 | 1012.6 |
| 20260905202959 | 90 | 229 | 2.6 | 2.6 | 0.00 | 0.00 | 0.00 | 69 | 1012.2 |
| 20260905202454 | 89 | 250 | 5.2 | 7.0 | 0.00 | 0.00 | 0.00 | 71 | 1012.5 |
| 20260905201949 | 89 | 255 | 6.1 | 7.0 | 0.00 | 0.00 | 0.00 | 70 | 1012.8 |
| 20260905201445 | 88 | 232 | 2.6 | 4.3 | 0.00 | 0.00 | 0.00 | 73 | 1012.7 |
| 20260905200944 | 89 | 234 | 2.6 | 2.6 | 0.00 | 0.00 | 0.00 | 72 | 1012.9 |
| 20260905200440 | 89 | 229 | 4.3 | 5.2 | 0.00 | 0.00 | 0.00 | 71 | 1012.8 |
| 20260905195939 | 88 | 239 | 4.3 | 6.1 | 0.00 | 0.00 | 0.00 | 72 | 1012.9 |
| 20260905195434 | 91 | 216 | 4.3 | 7.0 | 0.00 | 0.00 | 0.00 | 71 | 1012.9 |
| 20260905194930 | 89 | 247 | 4.3 | 5.2 | 0.00 | 0.00 | 0.00 | 69 | 1012.9 |
| 20260905194428 | 91 | 177 | 5.2 | 6.1 | 0.00 | 0.00 | 0.00 | 71 | 1012.9 |
| 20260905193923 | 88 | 194 | 2.6 | 2.6 | 0.00 | 0.00 | 0.00 | 72 | 1012.8 |
| 20260905193418 | 89 | 172 | 2.6 | 2.6 | 0.00 | 0.00 | 0.00 | 72 | 1012.8 |
| 20260905192913 | 88 | 281 | 2.6 | 4.3 | 0.00 | 0.00 | 0.00 | 72 | 1012.8 |
| 20260905192409 | 89 | 210 | 2.6 | 2.6 | 0.00 | 0.00 | 0.00 | 71 | 1013.2 |
| 20260905191909 | 90 | 218 | 2.6 | 2.6 | 0.00 | 0.00 | 0.00 | 71 | 1012.9 |
| 20260905191408 | 88 | 246 | 5.2 | 7.0 | 0.00 | 0.00 | 0.00 | 72 | 1012.9 |
| 20260905190902 | 88 | 174 | 2.6 | 4.3 | 0.00 | 0.00 | 0.00 | 74 | 1013.1 |
| 20260905190354 | 88 | 219 | 6.1 | 7.0 | 0.00 | 0.00 | 0.00 | 74 | 1013.0 |
| 20260905185853 | 87 | 178 | 3.5 | 4.3 | 0.00 | 0.00 | 0.00 | 76 | 1013.4 |
| 20260905185349 | 89 | 219 | 2.6 | 2.6 | 0.00 | 0.00 | 0.00 | 72 | 1013.3 |
| 20260905184848 | 89 | 215 | 2.6 | 2.6 | 0.00 | 0.00 | 0.00 | 72 | 1013.3 |
| 20260905184348 | 88 | 178 | 3.5 | 4.3 | 0.00 | 0.00 | 0.00 | 72 | 1013.4 |
| 20260905183846 | 87 | 189 | 3.5 | 4.3 | 0.00 | 0.00 | 0.00 | 74 | 1013.4 |
| 20260905183341 | 87 | 208 | 3.5 | 5.2 | 0.00 | 0.00 | 0.00 | 74 | 1013.7 |
| 20260905182836 | 87 | 191 | 4.3 | 5.2 | 0.00 | 0.00 | 0.00 | 76 | 1013.7 |
| 20260905182335 | 87 | 207 | 2.6 | 4.3 | 0.00 | 0.00 | 0.00 | 76 | 1014.0 |
| 20260905181831 | 87 | 228 | 5.2 | 7.0 | 0.00 | 0.00 | 0.00 | 75 | 1014.1 |
| 20260905181331 | 87 | 235 | 5.2 | 6.1 | 0.00 | 0.00 | 0.00 | 77 | 1014.3 |
| 20260905180830 | 87 | 218 | 6.1 | 7.0 | 0.00 | 0.00 | 0.00 | 71 | 1014.2 |
| 20260905180325 | 88 | 194 | 4.3 | 5.2 | 0.00 | 0.00 | 0.00 | 74 | 1014.4 |
| 20260905175820 | 88 | 209 | 2.6 | 2.6 | 0.00 | 0.00 | 0.00 | 74 | 1014.5 |
| 20260905175314 | 88 | 247 | 9.6 | 9.6 | 0.00 | 0.00 | 0.00 | 76 | 1014.3 |
| 20260905174810 | 86 | 230 | 4.3 | 5.2 | 0.00 | 0.00 | 0.00 | 77 | 1014.5 |
| 20260905174306 | 86 | 219 | 4.3 | 6.1 | 0.00 | 0.00 | 0.00 | 75 | 1014.5 |
| 20260905173801 | 86 | 232 | 7.8 | 8.7 | 0.00 | 0.00 | 0.00 | 77 | 1014.8 |
| 20260905173257 | 86 | 215 | 6.1 | 7.0 | 0.00 | 0.00 | 0.00 | 77 | 1014.8 |
| 20260905172756 | 84 | 239 | 7.0 | 7.8 | 0.00 | 0.00 | 0.00 | 80 | 1014.8 |
| 20260905172255 | 85 | 222 | 6.1 | 7.8 | 0.00 | 0.00 | 0.00 | 78 | 1015.0 |
| 20260905171751 | 85 | 203 | 5.2 | 7.0 | 0.00 | 0.00 | 0.00 | 79 | 1015.0 |
| 20260905171248 | 84 | 225 | 6.1 | 7.0 | 0.00 | 0.00 | 0.00 | 82 | 1015.1 |
| 20260905170744 | 83 | 186 | 4.3 | 6.1 | 0.00 | 0.00 | 0.00 | 82 | 1015.0 |
| 20260905170239 | 82 | 202 | 1.7 | 2.6 | 0.00 | 0.00 | 0.00 | 83 | 1015.1 |
| 20260905165738 | 82 | 226 | 7.0 | 7.0 | 0.00 | 0.00 | 0.00 | 84 | 1015.2 |
| 20260905165234 | 83 | 220 | 4.3 | 5.2 | 0.00 | 0.00 | 0.00 | 83 | 1015.0 |
| 20260905164734 | 86 | 222 | 7.8 | 9.6 | 0.00 | 0.00 | 0.00 | 81 | 1014.9 |
| 20260905164228 | 85 | 188 | 6.1 | 7.0 | 0.00 | 0.00 | 0.00 | 81 | 1015.1 |
| 20260905163725 | 86 | 185 | 7.0 | 11.3 | 0.00 | 0.00 | 0.00 | 76 | 1015.1 |
| 20260905163221 | 85 | 224 | 6.1 | 7.0 | 0.00 | 0.00 | 0.00 | 80 | 1015.1 |
| 20260905162716 | 84 | 221 | 6.1 | 7.0 | 0.00 | 0.00 | 0.00 | 80 | 1015.2 |
| 20260905162210 | 84 | 233 | 6.1 | 9.6 | 0.00 | 0.00 | 0.00 | 82 | 1015.5 |
| 20260905161705 | 86 | 210 | 5.2 | 7.8 | 0.00 | 0.00 | 0.00 | 79 | 1015.4 |
| 20260905161204 | 86 | 249 | 10.4 | 12.2 | 0.00 | 0.00 | 0.00 | 78 | 1015.5 |
| 20260905160702 | 87 | 233 | 6.1 | 7.0 | 0.00 | 0.00 | 0.00 | 76 | 1015.4 |
| 20260905160201 | 86 | 246 | 4.3 | 6.1 | 0.00 | 0.00 | 0.00 | 79 | 1015.4 |
| 20260905155656 | 86 | 220 | 2.6 | 2.6 | 0.00 | 0.00 | 0.00 | 77 | 1015.3 |
| 20260905155155 | 86 | 235 | 4.3 | 5.2 | 0.00 | 0.00 | 0.00 | 78 | 1015.1 |
| 20260905154650 | 86 | 183 | 4.3 | 5.2 | 0.00 | 0.00 | 0.00 | 78 | 1015.0 |
| 20260905154145 | 86 | 215 | 4.3 | 5.2 | 0.00 | 0.00 | 0.00 | 78 | 1014.9 |
| 20260905153641 | 87 | 186 | 3.5 | 4.3 | 0.00 | 0.00 | 0.00 | 76 | 1015.1 |
| 20260905153137 | 87 | 216 | 6.1 | 8.7 | 0.00 | 0.00 | 0.00 | 74 | 1014.8 |
| 20260905152631 | 87 | 182 | 0.9 | 0.9 | 0.00 | 0.00 | 0.00 | 74 | 1014.9 |
| 20260905152126 | 86 | 158 | 1.7 | 1.7 | 0.00 | 0.00 | 0.00 | 75 | 1014.9 |
| 20260905151621 | 86 | 212 | 2.6 | 2.6 | 0.00 | 0.00 | 0.00 | 75 | 1014.8 |
| 20260905151117 | 87 | 181 | 0.0 | 0.9 | 0.00 | 0.00 | 0.00 | 74 | 1014.9 |
| 20260905150612 | 86 | 308 | 1.7 | 1.7 | 0.00 | 0.00 | 0.00 | 76 | 1015.0 |
| 20260905150110 | 86 | 330 | 2.6 | 4.3 | 0.00 | 0.00 | 0.00 | 76 | 1014.8 |
| 20260905145609 | 86 | 252 | 3.5 | 4.3 | 0.00 | 0.00 | 0.00 | 76 | 1014.8 |
| 20260905145108 | 85 | 211 | 0.9 | 0.9 | 0.00 | 0.00 | 0.00 | 78 | 1014.9 |
| 20260905144603 | 84 | 211 | 1.7 | 1.7 | 0.00 | 0.00 | 0.00 | 79 | 1014.5 |
| 20260905144102 | 85 | 193 | 0.9 | 0.9 | 0.00 | 0.00 | 0.00 | 78 | 1014.8 |
| 20260905143602 | 84 | 203 | 1.7 | 1.7 | 0.00 | 0.00 | 0.00 | 79 | 1014.7 |
| 20260905143057 | 84 | 192 | 0.9 | 1.7 | 0.00 | 0.00 | 0.00 | 80 | 1014.8 |
| 20260905142556 | 84 | 122 | 0.0 | 0.0 | 0.00 | 0.00 | 0.00 | 81 | 1014.8 |
| 20260905142056 | 83 | 45 | 1.7 | 1.7 | 0.00 | 0.00 | 0.00 | 81 | 1014.8 |
| 20260905141550 | 83 | 111 | 0.0 | 0.0 | 0.00 | 0.00 | 0.00 | 82 | 1014.8 |
| 20260905141047 | 83 | 101 | 0.0 | 0.0 | 0.00 | 0.00 | 0.00 | 81 | 1014.8 |
| 20260905140542 | 84 | 129 | 0.0 | 0.0 | 0.00 | 0.00 | 0.00 | 81 | 1014.8 |
| 20260905140041 | 83 | 139 | 0.0 | 0.0 | 0.00 | 0.00 | 0.00 | 82 | 1014.9 |
| 20260905135537 | 83 | 205 | 0.0 | 0.0 | 0.00 | 0.00 | 0.00 | 83 | 1014.7 |
| 20260905135036 | 83 | 279 | 0.9 | 0.9 | 0.00 | 0.00 | 0.00 | 81 | 1014.8 |
| 20260905134531 | 82 | 133 | 0.0 | 0.0 | 0.00 | 0.00 | 0.00 | 83 | 1014.8 |
| 20260905134030 | 82 | 101 | 0.9 | 1.7 | 0.00 | 0.00 | 0.00 | 84 | 1014.5 |
| 20260905133526 | 82 | 82 | 1.7 | 2.6 | 0.00 | 0.00 | 0.00 | 84 | 1014.7 |
| 20260905133025 | 82 | 146 | 0.0 | 0.0 | 0.00 | 0.00 | 0.00 | 84 | 1014.7 |
| 20260905132525 | 80 | 52 | 0.9 | 0.9 | 0.00 | 0.00 | 0.00 | 88 | 1014.6 |
| 20260905132020 | 80 | 96 | 0.0 | 0.0 | 0.00 | 0.00 | 0.00 | 89 | 1014.7 |
| 20260905131515 | 79 | 98 | 0.0 | 0.0 | 0.00 | 0.00 | 0.00 | 90 | 1014.8 |
| 20260905131010 | 78 | 107 | 0.0 | 0.0 | 0.00 | 0.00 | 0.00 | 91 | 1014.9 |
| 20260905130509 | 78 | 110 | 0.0 | 0.0 | 0.00 | 0.00 | 0.00 | 91 | 1014.8 |
| 20260905130005 | 78 | 84 | 0.0 | 0.0 | 0.00 | 0.00 | 0.00 | 91 | 1015.0 |